Location: Santa Clara
(37.3540°N, 121.9540°W)
Time: 21:12:34
(UTC-08:00)

Tiangong - Visible Passes

Search period start: 24 January 2022 00:00
Search period end: 03 February 2022 00:00
Orbit: 383 x 386 km, 41.5° (Epoch: 23 January)

Date Brightness Start Highest point End Pass type
(mag) Time Alt. Az. Time Alt. Az. Time Alt. Az.
24 Jan 3.6 19:22:43 10° SSW 19:23:41 17° SSW 19:23:41 17° SSW visible
25 Jan 3.0 18:23:50 10° S 18:26:00 17° SE 18:27:06 15° ESE visible
26 Jan 1.4 18:59:43 10° SW 19:02:40 54° S 19:02:40 54° S visible
27 Jan 2.3 18:00:18 10° SW 18:03:09 31° SSE 18:05:55 11° E visible
27 Jan 3.6 19:36:45 10° W 19:38:08 23° W 19:38:08 23° W visible
28 Jan 1.0 18:36:53 10° WSW 18:40:04 86° NNW 18:41:18 34° ENE visible
29 Jan 2.2 19:14:07 10° W 19:16:38 38° NW 19:16:38 38° NW visible
30 Jan 1.4 18:14:07 10° W 18:17:14 56° NNW 18:19:42 15° ENE visible
30 Jan 4.3 19:51:23 10° WNW 19:51:54 13° WNW 19:51:54 13° WNW visible
31 Jan 1.9 18:51:23 10° WNW 18:54:23 37° N 18:54:56 34° NNE visible
01 Feb 3.1 19:28:30 10° WNW 19:30:09 25° NW 19:30:09 25° NW visible
02 Feb 2.0 18:28:31 10° WNW 18:31:29 37° N 18:33:10 20° ENE visible
